Tracking 28915 objects as of 29-May-2024
HD Live streaming from Space Station
objects crossing your sky now

ARCSAT-1

Track ARCSAT-1 now!
10-day predictions
ARCSAT-1 is classified as:


NORAD ID: 52161
Int'l Code: 2022-033E
Perigee: 470.2 km
Apogee: 481.4 km
Inclination: 97.3 °
Period: 94.0 minutes
Semi major axis: 6846 km
RCS: Unknown
Launch date: April 1, 2022
Source: Norway (NOR)
Launch site: AIR FORCE EASTERN TEST RANGE (AFETR)

Uplink (MHz):
Downlink (MHz): 267.300
Beacon (MHz):
Mode: FM
Call sign:
Status: Inactive

Your satellite tracking list
Your tracking list is empty




NASA's NSSDC Master Catalog

Two Line Element Set (TLE):
1 52161U 22033E   24149.91644144  .00006660  00000-0  21517-3 0  9995
2 52161  97.3235 229.9349 0008224  40.3194 319.8657 15.32398274120164
Source of the keplerian elements: AFSPC